Weather History for PAKF - March, 2013

Change the Weather History Date:

Wednesday, March 13, 2013

  Actual Average (PACD) Record (PACD)
Temperature  
Mean Temperature 28 °F 30 °F  
Max Temperature 28 °F 35 °F 47 °F (1963)
Min Temperature 26 °F 25 °F -1 °F (1947)
Degree Days  
Heating Degree Days 37 35  
Month to date heating degree days 455  
Since 1 July heating degree days 6679  
Cooling Degree Days 0    
Month to date cooling degree days  
Year to date cooling degree days  
Moisture  
Dew Point 21 °F    
Average Humidity 72    
Maximum Humidity 80    
Minimum Humidity 61    
Precipitation  
Precipitation 0.00 in 0.09 in 0.50 in (1947)
Month to date precipitation 1.25  
Year to date precipitation 7.39  
Snow  
Snow 0.00 in 0.50 in 4.20 in (1983)
Month to date snowfall 5.7  
Since 1 July snowfall 57.9  
Snow Depth -    
Sea Level Pressure  
Sea Level Pressure 30.19 in    
Wind  
Wind Speed 12 mph (WNW)    
Max Wind Speed 17 mph    
Max Gust Speed 26 mph    
Visibility 10 miles    
Events Snow    
T = Trace of Precipitation, MM = Missing Value Source: NWS Daily Summary

Daily Weather History Graph

Daily Weather History Graph

Search for Another Location

Airport or City:

Trip Planner

Search our weather history database for the weather conditions in past years. The results will help you decide how hot, cold, wet, or windy it might be!

Date:

Astronomy

Mar. 13, 2013 Rise Set
Actual Time 8:12 AM HADT 7:54 PM HADT
Civil Twilight 7:36 AM HADT 8:30 PM HADT
Nautical Twilight 6:54 AM HADT 9:12 PM HADT
Astronomical Twilight 6:10 AM HADT 9:56 PM HADT
Moon 8:32 AM HADT (3/13) 10:56 PM HADT (3/13)
Length of Visible Light 12h 54m
Length of Day
11h 42m
Waxing Crescent, 5% of the Moon is Illuminated
Mar 13
Waxing Crescent
Mar 19
First Quarter
Mar 27
Full
Apr 2
Last Quarter
Apr 10
New

Hourly Weather History & Observations

Time (HADT) Temp. Windchill Dew Point Humidity Pressure Visibility Wind Dir Wind Speed Gust Speed Precip Events Conditions
12:01 AM 30.9 °F 20.7 °F 19.0 °F 61% 30.36 in 10.0 mi West 13.8 mph 24.2 mph N/A   Clear
1:01 AM 30.9 °F - 19.9 °F 64% 30.34 in 10.0 mi Calm Calm - N/A   Partly Cloudy
2:01 AM 28.9 °F 19.2 °F 19.9 °F 69% 30.34 in 10.0 mi NW 11.5 mph 18.4 mph N/A   Clear
3:01 AM 28.9 °F 17.7 °F 21.0 °F 72% 30.32 in 10.0 mi WNW 15.0 mph 24.2 mph N/A   Clear
4:01 AM 28.0 °F 17.0 °F 21.0 °F 75% 30.29 in 10.0 mi WNW 13.8 mph 19.6 mph N/A   Clear
5:01 AM 27.0 °F 14.7 °F 19.9 °F 75% 30.27 in 10.0 mi WNW 16.1 mph 19.6 mph N/A   Clear
6:01 AM 26.1 °F 13.6 °F 19.9 °F 78% 30.26 in 10.0 mi WNW 16.1 mph - N/A   Clear
7:01 AM 26.1 °F 14.5 °F 19.9 °F 78% 30.26 in 10.0 mi WNW 13.8 mph 21.9 mph N/A   Clear
7:18 AM 26.6 °F 16.2 °F 21.2 °F 80% 29.97 in 10.0 mi WNW 11.5 mph 20.7 mph N/A   Mostly Cloudy
8:01 AM 27.0 °F 16.1 °F 21.0 °F 78% 30.25 in 9.0 mi WNW 12.7 mph 26.5 mph 0.00 in Snow Light Snow
9:01 AM 27.0 °F 14.7 °F 21.0 °F 78% 30.24 in 9.0 mi West 16.1 mph 21.9 mph 0.00 in Snow Light Snow
10:01 AM 28.0 °F 17.5 °F 19.9 °F 72% 30.22 in 9.0 mi West 12.7 mph 17.3 mph 0.00 in Snow Light Snow
11:01 AM 28.9 °F 19.8 °F 21.0 °F 72% 30.22 in 9.0 mi WNW 10.4 mph - 0.00 in Snow Light Snow
12:01 PM 30.0 °F 20.5 °F 21.9 °F 72% 30.22 in 10.0 mi West 11.5 mph - 0.00 in   Overcast
12:37 PM 30.2 °F 20.2 °F 21.2 °F 69% 29.92 in 10.0 mi WNW 12.7 mph 19.6 mph 0.00 in Snow Light Snow
12:51 PM 30.2 °F 21.3 °F 21.2 °F 69% 29.92 in 9.0 mi WNW 10.4 mph 17.3 mph 0.00 in Snow Light Snow
1:01 PM 30.0 °F 20.0 °F 21.9 °F 72% 30.20 in 9.0 mi West 12.7 mph 18.4 mph 0.00 in Snow Light Snow
2:01 PM 30.0 °F 21.1 °F 21.9 °F 72% 30.19 in 10.0 mi NW 10.4 mph - 0.00 in   Overcast
3:01 PM 30.9 °F 22.8 °F 21.0 °F 67% 30.17 in 10.0 mi NW 9.2 mph - N/A   Overcast
4:01 PM 30.9 °F 22.8 °F 21.9 °F 69% 30.15 in 10.0 mi NW 9.2 mph - N/A   Overcast
5:01 PM 30.0 °F 20.0 °F 19.9 °F 66% 30.14 in 10.0 mi WNW 12.7 mph 20.7 mph N/A   Overcast
6:01 PM 28.9 °F 18.2 °F 21.0 °F 72% 30.13 in 10.0 mi NW 13.8 mph 20.7 mph N/A   Overcast
7:01 PM 28.0 °F 16.1 °F 21.0 °F 75% 30.12 in 9.0 mi West 16.1 mph 25.3 mph 0.00 in Snow Light Snow
8:01 PM 28.0 °F 18.1 °F 21.9 °F 78% 30.12 in 9.0 mi WNW 11.5 mph 18.4 mph 0.00 in Snow Light Snow
9:01 PM 28.0 °F 17.5 °F 21.0 °F 75% 30.12 in 9.0 mi WNW 12.7 mph 18.4 mph 0.00 in Snow Light Snow
10:01 PM 28.0 °F 15.7 °F 19.9 °F 72% 30.10 in 9.0 mi NW 17.3 mph 23.0 mph 0.00 in Snow Light Snow